This demonstration page uses our WeatherBlox Daily Observations layout. Learn more.

Left ArrowRight Arrow

44.89941, -97.11507

Hourly Observations for June 30, 2016

Temp ( °F °C ) Dew Point ( °F °C ) Humidity (%) Winds ( mph kmh ) Pressure ( in mb ) Visibility ( mi km ) Precip ( " mm )
12:53 am 00:53 Cloudy 67 19.4 57 13.9 71 71 N 8 13 29.96 1015 10 16 0.00 0.00
1:53 am 01:53 Cloudy 67 19.4 57 13.9 71 71 N 5 7 29.96 1014 10 16 0.00 0.00
2:53 am 02:53 Mostly Cloudy 66 18.9 56 13.3 70 70 Calm 29.95 1014 10 16 0.00 0.00
3:53 am 03:53 Mostly Clear 65 18.3 56 13.3 73 73 N 8 13 29.95 1014 10 16 0.00 0.00
4:53 am 04:53 Mostly Clear 65 18.3 55 12.8 70 70 N 7 11 29.94 1014 10 16 0.00 0.00
5:53 am 05:53 Mostly Cloudy 63 17.2 54 12.2 73 73 N 6 9 29.95 1014 10 16 0.00 0.00
6:53 am 06:53 Partly Cloudy 63 17.2 54 12.2 73 73 N 9 15 29.98 1015 10 16 0.00 0.00
7:53 am 07:53 Partly Cloudy 67 19.4 55 12.8 66 66 NNE 15 24 30.00 1016 10 16 0.00 0.00
8:53 am 08:53 Cloudy 71 21.7 56 13.3 59 59 NNE 21 33 30.01 1016 10 16 0.00 0.00
9:53 am 09:53 Sunny 73 22.8 55 12.8 53 53 NNE 20 31 30.02 1017 10 16 0.00 0.00
10:53 am 10:53 Mostly Sunny 74 23.3 56 13.3 54 54 NNE 22 35 30.04 1017 10 16 0.00 0.00
11:53 am 11:53 Sunny 76 24.4 53 11.7 45 45 N 21 33 30.05 1018 10 16 0.00 0.00
12:53 pm 12:53 Mostly Cloudy 75 23.9 50 10 41 41 N 20 31 30.06 1018 10 16 0.00 0.00
1:53 pm 13:53 Mostly Sunny 77 25 47 8.3 35 35 NNE 16 26 30.06 1018 10 16 0.00 0.00
2:53 pm 14:53 Sunny 78 25.6 47 8.3 33 33 N 22 35 30.05 1018 10 16 0.00 0.00
3:53 pm 15:53 Sunny 77 25 44 6.7 31 31 NNW 18 30 30.07 1018 10 16 0.00 0.00
4:53 pm 16:53 Sunny 75 23.9 42 5.6 31 31 N 18 30 30.08 1019 10 16 0.00 0.00
5:53 pm 17:53 Sunny 74 23.3 41 5 31 31 NNE 21 33 30.08 1019 10 16 0.00 0.00
6:53 pm 18:53 Sunny 72 22.2 42 5.6 34 34 NNE 21 33 30.08 1019 10 16 0.00 0.00
7:53 pm 19:53 Sunny 69 20.6 44 6.7 41 41 NNE 16 26 30.09 1019 10 16 0.00 0.00
8:53 pm 20:53 Sunny 64 17.8 45 7.2 50 50 NNE 13 20 30.11 1020 10 16 0.00 0.00
9:53 pm 21:53 Clear 59 15 44 6.7 58 58 NNE 9 15 30.12 1020 10 16 0.00 0.00
10:53 pm 22:53 Clear 53 11.7 43 6.1 69 69 N 9 15 30.15 1021 10 16 0.00 0.00
11:53 pm 23:53 Clear 51 10.6 44 6.7 77 77 NNE 10 17 30.16 1021 10 16 0.00 0.00

Powered by AerisWeather